Content
SEND FEEDBACK

Daily
Averages
Monthly
Summary
Italy

FLORENCE - AIRPORT, ITALY


Home > Europe > Italy
Elevation: 125 feet     Latitude: 43 48N     Longitude: 011 12E

WEATHER
 
SELECT A DAY
Number of Records: 241,993;   Date Range: 7/1/96 - 7/9/14
 
SHARE

PRINT THIS DATA

[ ← Previous Day ]
WEATHER ALMANAC - JANUARY 3, 2013
[ Next Day → ]
[ °C ]   °F
Weather ElementAverageHighLow
Temperature46.2 °F59 °F (3:20 pm)37.4 °F (10:20 pm)
Dewpoint40.2 °F44.6 °F (11:50 am)35.6 °F (10:20 pm)
Humidity80.7 %100 % (9:20 pm)55 % (3:50 pm)
Barometer30.49 in30.54 in (9:50 am)30.36 in (12:50 am)
Wind Speed3.2 mph9.2 mph (2:20 am)
Weather ElementAverage
Wind DirectionENE (80.2 °)

Weather ElementTotal
Precipitation---
Heating Degree Days16.8 (Base 65)
Averaged from 47 records on January 3, 2013
WEATHER CONDITIONS BREAKOUT
WIND DIRECTION BREAKOUT
WEATHER BY HOUR - JANUARY 3, 2013
[ °C ]   °F
Local TimeTemperatureDewpointHumidityBarometerVisibilityWind DirectionWind SpeedGust SpeedPrecipitationEventsConditions
12:50 AM46.4 °F39.2 °F76 %30.36 inSW (220°)5.8 mphClear
1:20 AM46.4 °F39.2 °F76 %30.36 inSSW (210°)6.9 mphClear
1:50 AM46.4 °F39.2 °F76 %30.39 inSSW (200°)8.1 mphClear
2:20 AM44.6 °F39.2 °F81 %30.39 inSSW (200°)9.2 mphClear
2:50 AM44.6 °F39.2 °F81 %30.42 inSSW (200°)6.9 mphClear
3:20 AM42.8 °F37.4 °F81 %30.42 inSouth (190°)3.5 mphClear
3:50 AM41.0 °F37.4 °F87 %30.42 inVariable2.3 mphClear
4:20 AM42.8 °F39.2 °F87 %30.42 inSouth (190°)3.5 mphClear
4:50 AM41.0 °F37.4 °F87 %30.45 inSouth (180°)5.8 mphClear
5:20 AM41.0 °F39.2 °F93 %30.45 inSouth (190°)5.8 mphClear
5:50 AM42.8 °F39.2 °F87 %30.45 inSouth (190°)6.9 mphClear
6:20 AM41.0 °F37.4 °F87 %30.45 inSouth (190°)5.8 mphClear
6:50 AM41.0 °F39.2 °F93 %30.48 inSouth (170°)3.5 mphClear
7:20 AM41.0 °F37.4 °F87 %30.48 inCalmClear
7:50 AM41.0 °F37.4 °F87 %30.51 inVariable3.5 mphClear
8:20 AM41.0 °F37.4 °F87 %30.51 inVariable3.5 mphClear
8:50 AM42.8 °F39.2 °F87 %30.51 inVariable1.2 mphClear
9:20 AM44.6 °F41.0 °F87 %30.51 inVariable2.3 mphClear
9:50 AM46.4 °F41.0 °F81 %30.54 inCalmClear
10:20 AM48.2 °F41.0 °F76 %30.54 inVariable2.3 mphClear
10:50 AM50.0 °F42.8 °F76 %30.54 inSE (140°)4.6 mphClear
11:20 AM53.6 °F42.8 °F67 %30.54 inVariable1.2 mphClear
11:50 AM55.4 °F44.6 °F67 %30.51 inVariable1.2 mphClear
12:20 PM57.2 °F42.8 °F59 %30.51 inCalmClear
12:50 PM55.4 °F42.8 °F63 %30.51 inVariable1.2 mphClear
1:20 PM55.4 °F44.6 °F67 %30.51 inSSW (200°)3.5 mphClear
1:50 PM57.2 °F42.8 °F59 %30.51 inSSE (160°)3.5 mphClear
2:20 PM57.2 °F44.6 °F63 %30.48 inSSE (160°)3.5 mphClear
2:50 PM57.2 °F42.8 °F59 %30.48 inSouth (190°)3.5 mphClear
3:20 PM59.0 °F44.6 °F59 %30.48 inVariable1.2 mphClear
3:50 PM59.0 °F42.8 °F55 %30.48 inVariable1.2 mphClear
4:20 PM55.4 °F42.8 °F63 %30.51 inVariable2.3 mphClear
4:50 PM51.8 °F42.8 °F71 %30.51 inVariable1.2 mphClear
5:20 PM48.2 °F42.8 °F82 %30.51 inVariable1.2 mphClear
5:50 PM44.6 °F41.0 °F87 %30.51 inVariable2.3 mphClear
6:20 PM44.6 °F41.0 °F87 %30.51 inVariable1.2 mphClear
6:50 PM44.6 °F41.0 °F87 %30.51 inENE (60°)3.5 mphClear
7:20 PM42.8 °F39.2 °F87 %30.51 inEast (100°)4.6 mphClear
7:50 PM42.8 °F39.2 °F87 %30.51 inVariable1.2 mphClear
8:20 PM41.0 °F39.2 °F93 %30.51 inENE (70°)3.5 mphClear
8:50 PM41.0 °F39.2 °F93 %30.51 inESE (120°)3.5 mphClear
9:20 PM39.2 °F39.2 °F100 %30.51 inENE (70°)3.5 mphClear
9:50 PM41.0 °F39.2 °F93 %30.54 inVariable2.3 mphClear
10:20 PM37.4 °F35.6 °F93 %30.54 inEast (100°)3.5 mphClear
10:50 PM37.4 °F37.4 °F100 %30.54 inENE (70°)2.3 mphClear
11:20 PM39.2 °F39.2 °F100 %30.54 inCalmClear
11:50 PM37.4 °F35.6 °F93 %30.54 inVariable2.3 mphClear
Hourly data recorded from LIRQ, located miles away from Florence - Airport, Italy







STORIES FROM OUR PARTNERS